[[{"header":{"parameterUnit":"m.s-1","parameterCategory":2,"la1":30.2991,"la2":30.254,"lo1":-89.0895,"lo2":-89.0444,"dy":0.0017,"dx":0.0017,"nx":28,"ny":28,"refTime":"2023-08-09T03:00:00:Z","depth":"0","parameterNumber":2,"parameterNumberName":"U-component_of_CURRENTS"},"data":[0,0,0,0,0,0,0,0,0,0,0,0,0,0,0,0,0,0,0,0,0,0,0,0,0,0,0,0,0,0,0,0,0,0,0,0,0,0,0,0,0,0,0,0,0,0,0,0,0,0,0,0,0,0,0,0,0,0,0.3881,0.3882,0,0.3922,0.3923,0.3923,0.3962,0.3962,0.3963,0.3964,0.4099,0.4102,0.4105,0,0,0,0,0,0,0,0,0,0,0,0,0,0.39,0.3899,0.3881,0.3882,0.3883,0.3922,0.3923,0.3923,0.3962,0.3962,0.3963,0.3964,0.4098,0.4102,0.4105,0,0,0,0,0,0,0,0,0,0,0,0,0,0.391,0.3898,0.3881,0.3908,0.391,0.3922,0.3923,0.3923,0.3961,0.3962,0.3963,0.3964,0.4097,0.4101,0.4106,0.4116,0,0,0.412,0.4122,0,0,0,0,0,0,0,0,0.3909,0.3909,0.3903,0.3906,0.3909,0.3939,0.3979,0.3993,0.3961,0.3941,0.3964,0.3965,0.4054,0.4062,0.4065,0.4122,0.4128,0.412,0.4123,0.4125,0.4126,0,0,0,0,0,0,0,0.3908,0.3908,0.3896,0.3904,0.3907,0.3939,0.3941,0.3981,0.3993,0.3943,0.3946,0.3952,0.4057,0.406,0.4069,0.413,0.412,0.4124,0.4127,0.4129,0.431,0.4312,0,0,0,0,0,0,0.3901,0.3907,0.3895,0.3898,0.3913,0.3938,0.394,0.3927,0.3991,0.4001,0.3951,0.3954,0.4052,0.4063,0.4074,0.4139,0.4125,0.4129,0.4132,0.4308,0.431,0.4313,0,0,0,0,0,0,0.3901,0.3899,0.3893,0.3906,0.3907,0.3936,0.3922,0.3928,0.3941,0.3996,0.4008,0.396,0.4053,0.4068,0.4125,0.4143,0.4131,0.4135,0.4305,0.4309,0.4311,0.4238,0,0,0,0,0,0,0.3901,0.3898,0.3887,0.3904,0.3906,0.3897,0.3922,0.3928,0.3943,0.3947,0.4007,0.402,0.4055,0.4118,0.413,0.4149,0.4139,0.4303,0.4307,0.431,0.4238,0.4238,0.4239,0,0,0,0,0,0.3901,0.3871,0.3885,0.3885,0.3889,0.3897,0.39,0.3924,0.3943,0.3941,0.3995,0.4019,0.4153,0.4123,0.4136,0.4157,0.4301,0.4306,0.431,0.4238,0.4238,0.4239,0,0,0,0,0,0,0.386,0.3873,0.3889,0.3861,0.3881,0.3904,0.3893,0.3924,0.3962,0.3967,0.4029,0.4046,0.4121,0.415,0.4116,0.4229,0.4237,0.4245,0.4178,0.4179,0.418,0.4192,0.4143,0,0,0,0,0,0.3849,0.383,0.386,0.3833,0.3839,0.3871,0.3878,0.3899,0.3934,0.395,0.4,0.4068,0.4148,0.4168,0.4241,0.4273,0.4344,0.4306,0.4306,0.4306,0.433,0.4466,0.448,0.4328,0.4328,0.4328,0,0,0.3818,0.3827,0.3811,0.3824,0.3832,0.3837,0.3875,0.3875,0.3896,0.3961,0.3998,0.4077,0.4167,0.4225,0.4259,0.4244,0.4379,0.4312,0.431,0.4336,0.4472,0.4487,0.45,0.4331,0.433,0.433,0,0,0.3751,0.3759,0.3728,0.3749,0.3771,0.38,0.3804,0.3839,0.3869,0.3914,0.3995,0.4081,0.4157,0.4236,0.4286,0.4333,0.4397,0.4358,0.4339,0.4468,0.4482,0.4495,0.4559,0.4578,0.4331,0.4331,0.4331,0,0.3723,0.3689,0.3721,0.3712,0.3726,0.3783,0.3775,0.3812,0.3869,0.3911,0.3918,0.4105,0.417,0.4285,0.431,0.4332,0.4401,0.4315,0.4466,0.4481,0.4495,0.4559,0.4581,0.4328,0.4329,0.4329,0.4329,0,0.3655,0.3631,0.3611,0.3627,0.3652,0.3643,0.3713,0.3752,0.3802,0.3858,0.398,0.4079,0.4196,0.4231,0.4283,0.4423,0.4436,0.4465,0.4453,0.4506,0.4569,0.4593,0.4324,0.4325,0.4326,0.4327,0,0,0.359,0.3566,0.3563,0.3562,0.3609,0.3626,0.367,0.3741,0.3795,0.3869,0.3948,0.4098,0.4174,0.4242,0.4326,0.4427,0.4569,0.4482,0.449,0.4523,0.4825,0.4638,0.4647,0.4629,0.4634,0.4638,0.4811,0,0.353,0.3481,0.3504,0.3486,0.3474,0.3558,0.3604,0.369,0.3771,0.3863,0.3994,0.411,0.417,0.4241,0.4355,0.4552,0.4639,0.4518,0.4792,0.4799,0.4609,0.4672,0.4477,0.4599,0.4835,0.4839,0.4842,0,0.3478,0.3451,0.3405,0.3432,0.3441,0.3459,0.3572,0.3623,0.3774,0.3841,0.3971,0.409,0.4279,0.4309,0.4629,0.4554,0.4692,0.4808,0.4818,0.4696,0.4659,0.4599,0.4635,0.443,0.488,0.4877,0.4874,0,0.3436,0.3402,0.3362,0.3367,0.3404,0.3431,0.3482,0.3616,0.3684,0.3845,0.3912,0.4132,0.4255,0.4486,0.4709,0.4709,0.5022,0.5049,0.4995,0.4981,0.4896,0.4865,0.4752,0.5266,0.5265,0.5265,0.5264,0,0.3384,0.3359,0.3334,0.3318,0.3325,0.3384,0.3445,0.3529,0.3655,0.3736,0.3906,0.401,0.432,0.4516,0.4721,0.4907,0.5037,0.5013,0.503,0.4856,0.482,0.4703,0.4665,0.5271,0.527,0.5269,0.5268,0,0.3354,0.332,0.3285,0.3288,0.3296,0.3317,0.3404,0.3462,0.3578,0.3687,0.3744,0.3972,0.423,0.4475,0.4834,0.489,0.4956,0.5127,0.485,0.4829,0.4545,0.4513,0.4426,0.4326,0.512,0.5116,0.5113,0,0.3335,0.3298,0.3263,0.3253,0.325,0.3283,0.3318,0.3418,0.3478,0.3658,0.3706,0.3951,0.4089,0.4461,0.466,0.4914,0.4846,0.4821,0.4782,0.4494,0.4478,0.4365,0.4281,0.4648,0.4642,0.4637,0.4632,0,0.3312,0.3289,0.3263,0.3223,0.3225,0.3235,0.328,0.33,0.3423,0.3488,0.3596,0.3707,0.4017,0.4184,0.4441,0.4574,0.4534,0.4714,0.4543,0.4191,0.3949,0.3869,0.4523,0.4586,0.459,0.4594,0.4596,0.4598,0.331,0.3281,0.3231,0.3199,0.3193,0.3167,0.314,0.3184,0.3211,0.3256,0.3419,0.348,0.3714,0.4054,0.4136,0.4071,0.4221,0.4033,0.4052,0.3986,0.3764,0.4243,0.4227,0.423,0.4232,0.4234,0.4236,0,0.3273,0.3234,0.3214,0.3138,0.3088,0.3108,0.3097,0.3033,0.2983,0.3068,0.3109,0.3159,0.3292,0.3471,0.3569,0.3454,0.3368,0.3363,0.3195,0.3181,0.3722,0.3563,0.3244,0.3244,0.3244,0.3245,0.3245,0.3245,0.3247,0.3185,0.3153,0.3035,0.2985,0.2867,0.2821,0.2733,0.2739,0.264,0.2612,0.2697,0.29,0.3028,0.2964,0.2896,0.271,0.2607,0.2648,0.302,0.3084,0.3144,0.2978,0.2542,0.2541,0.1976,0.1972,0.1968]},{"header":{"parameterUnit":"m.s-1","parameterCategory":2,"la1":30.2991,"la2":30.254,"lo1":-89.0895,"lo2":-89.0444,"dy":0.0017,"dx":0.0017,"nx":28,"ny":28,"refTime":"2023-08-09T03:00:00:Z","depth":"0","parameterNumber":3,"parameterNumberName":"V-component_of_CURRENTS"},"data":[0,0,0,0,0,0,0,0,0,0,0,0,0,0,0,0,0,0,0,0,0,0,0,0,0,0,0,0,0,0,0,0,0,0,0,0,0,0,0,0,0,0,0,0,0,0,0,0,0,0,0,0,0,0,0,0,0,0,0.18,0.1801,0,0.1816,0.1816,0.1816,0.1775,0.1773,0.1772,0.177,0.1654,0.1652,0.1651,0,0,0,0,0,0,0,0,0,0,0,0,0,0.1681,0.1684,0.18,0.1801,0.1801,0.1816,0.1816,0.1816,0.1775,0.1773,0.1771,0.177,0.1655,0.1653,0.165,0,0,0,0,0,0,0,0,0,0,0,0,0,0.172,0.1685,0.18,0.1781,0.1779,0.1815,0.1816,0.1816,0.1775,0.1773,0.1771,0.1769,0.1655,0.1653,0.165,0.1676,0,0,0.1642,0.1641,0,0,0,0,0,0,0,0,0.1718,0.1724,0.1784,0.1782,0.178,0.179,0.1731,0.1762,0.1776,0.1778,0.177,0.1768,0.1688,0.1683,0.1694,0.167,0.1665,0.1642,0.164,0.1639,0.1638,0,0,0,0,0,0,0,0.1715,0.1723,0.1808,0.1784,0.1782,0.1752,0.1756,0.1737,0.1743,0.1778,0.1774,0.1775,0.1686,0.1697,0.169,0.1664,0.1642,0.1639,0.1638,0.1637,0.1601,0.1601,0,0,0,0,0,0,0.1717,0.1722,0.1807,0.1808,0.1742,0.1756,0.1761,0.179,0.1746,0.1738,0.1777,0.1773,0.1702,0.1694,0.1686,0.1688,0.1639,0.1636,0.1635,0.16,0.1601,0.1602,0,0,0,0,0,0,0.1715,0.1726,0.1807,0.1762,0.177,0.1761,0.1794,0.1791,0.181,0.1747,0.1736,0.1797,0.17,0.169,0.1676,0.1684,0.1635,0.1633,0.1599,0.16,0.1601,0.1708,0,0,0,0,0,0,0.1712,0.1726,0.1752,0.1763,0.1772,0.1847,0.1796,0.1793,0.1812,0.1807,0.1761,0.1748,0.1698,0.168,0.1673,0.1679,0.1631,0.1599,0.16,0.1601,0.1704,0.1713,0.172,0,0,0,0,0,0.1708,0.1755,0.1754,0.1764,0.1809,0.1849,0.1852,0.1837,0.1815,0.1842,0.1799,0.175,0.1682,0.168,0.1671,0.1676,0.1598,0.1599,0.1601,0.17,0.1711,0.172,0,0,0,0,0,0,0.1708,0.1755,0.1755,0.1811,0.1835,0.1841,0.1861,0.1856,0.185,0.1836,0.1773,0.1759,0.1748,0.1703,0.1703,0.1667,0.1626,0.1626,0.1704,0.1714,0.1722,0.1725,0.1628,0,0,0,0,0,0.1725,0.1767,0.1805,0.184,0.1865,0.187,0.1884,0.188,0.1873,0.1869,0.184,0.1791,0.1751,0.1726,0.1696,0.1688,0.1636,0.1679,0.1687,0.1694,0.169,0.1627,0.1629,0.1606,0.1606,0.1606,0,0,0.1716,0.1757,0.177,0.1842,0.1857,0.1902,0.1874,0.1909,0.1922,0.1856,0.1869,0.1833,0.1759,0.1745,0.1734,0.1705,0.1678,0.1696,0.1703,0.1694,0.1629,0.1631,0.1633,0.1607,0.1607,0.1607,0,0,0.1735,0.178,0.1829,0.1869,0.1918,0.193,0.1949,0.1982,0.1977,0.1994,0.1934,0.1903,0.1869,0.1808,0.1768,0.1804,0.1735,0.1797,0.1829,0.177,0.1771,0.1771,0.173,0.1726,0.1788,0.1788,0.1788,0,0.1729,0.1796,0.1843,0.191,0.1934,0.1949,0.1997,0.2008,0.2023,0.2008,0.2006,0.1932,0.1888,0.1821,0.1839,0.182,0.1787,0.1801,0.1781,0.178,0.1778,0.1736,0.173,0.1793,0.1793,0.1792,0.1792,0,0.1791,0.1841,0.1876,0.196,0.2005,0.2044,0.2076,0.2098,0.2096,0.2087,0.2056,0.2005,0.1944,0.1934,0.1902,0.1863,0.1846,0.1811,0.1759,0.1787,0.1741,0.1733,0.1801,0.1799,0.1797,0.1796,0,0,0.177,0.1894,0.19,0.1936,0.2031,0.2065,0.2102,0.2122,0.2115,0.2122,0.21,0.2049,0.202,0.1973,0.1924,0.1884,0.1866,0.186,0.1854,0.1826,0.1755,0.1677,0.166,0.1836,0.1835,0.1834,0.1735,0,0.1792,0.1895,0.1962,0.2028,0.2076,0.2116,0.2141,0.2158,0.2161,0.2153,0.2085,0.2059,0.203,0.2008,0.1963,0.1904,0.1847,0.1897,0.1725,0.172,0.1651,0.1647,0.1655,0.1561,0.1727,0.1725,0.1724,0,0.1825,0.1887,0.1963,0.204,0.2067,0.211,0.214,0.2172,0.2162,0.2157,0.2119,0.209,0.2038,0.2011,0.1893,0.1935,0.185,0.1795,0.1789,0.1667,0.1625,0.1553,0.1539,0.1375,0.1711,0.1712,0.1713,0,0.176,0.1878,0.1924,0.1959,0.2062,0.2082,0.213,0.2155,0.2172,0.2163,0.2178,0.2099,0.2075,0.1972,0.1884,0.1892,0.1756,0.1734,0.1565,0.156,0.1502,0.1493,0.1308,0.161,0.161,0.1611,0.1611,0,0.1748,0.1782,0.1892,0.1917,0.1958,0.2052,0.2088,0.2111,0.215,0.2167,0.2173,0.2172,0.2071,0.1996,0.189,0.1713,0.1742,0.1563,0.1519,0.1542,0.1537,0.1339,0.1292,0.1607,0.1608,0.1609,0.1609,0,0.1673,0.1742,0.1798,0.19,0.1929,0.1961,0.208,0.2101,0.2159,0.2187,0.2195,0.2218,0.2141,0.2016,0.1853,0.1713,0.1472,0.1466,0.1513,0.1474,0.1153,0.1114,0.091,0.0886,0.1265,0.1263,0.126,0,0.1649,0.1667,0.1767,0.1796,0.1845,0.192,0.1964,0.2064,0.2109,0.2213,0.2217,0.2196,0.217,0.1931,0.1705,0.1469,0.1369,0.1281,0.1267,0.1118,0.1043,0.1035,0.1032,0.1252,0.1249,0.1248,0.1246,0,0.1599,0.1626,0.1676,0.1727,0.178,0.1858,0.1945,0.1983,0.2102,0.2153,0.2219,0.2229,0.2062,0.1869,0.1564,0.1395,0.1203,0.1231,0.1063,0.0994,0.0989,0.0952,0.1349,0.1231,0.1232,0.1233,0.1234,0.1235,0.155,0.1562,0.1616,0.1658,0.1723,0.1788,0.1834,0.1943,0.2019,0.2111,0.2167,0.2191,0.1968,0.1586,0.1384,0.0967,0.1036,0.0832,0.0795,0.0797,0.0771,0.1128,0.096,0.096,0.096,0.096,0.096,0,0.1473,0.1501,0.1549,0.16,0.1637,0.1704,0.1809,0.1857,0.1935,0.2051,0.2112,0.1972,0.1669,0.1372,0.086,0.0586,0.0568,0.0438,0.0442,0.0461,0.0749,0.0741,0.0535,0.0535,0.0535,0.0535,0.0536,0.0536,0.1434,0.1434,0.1463,0.1495,0.1541,0.1587,0.1639,0.1719,0.1821,0.1884,0.1897,0.1947,0.1755,0.0875,0.0309,0.0194,0.008,0.0048,-0.0013,0.0175,0.021,0.0243,0.022,-0.0092,-0.0093,-0.0239,-0.0242,-0.0243]}],[{"header":{"parameterUnit":"m.s-1","parameterCategory":2,"la1":30.2991,"la2":30.254,"lo1":-89.0895,"lo2":-89.0444,"dy":0.0017,"dx":0.0017,"nx":28,"ny":28,"refTime":"2023-08-09T03:00:00:Z","depth":"2","parameterNumber":2,"parameterNumberName":"U-component_of_CURRENTS"},"data":[0,0,0,0,0,0,0,0,0,0,0,0,0,0,0,0,0,0,0,0,0,0,0,0,0,0,0,0,0,0,0,0,0,0,0,0,0,0,0,0,0,0,0,0,0,0,0,0,0,0,0,0,0,0,0,0,0,0,0.2018,0.2019,0,0.2121,0.2123,0.2124,0.2267,0.227,0.2272,0.2274,0.2579,0.2585,0.2591,0,0,0,0,0,0,0,0,0,0,0,0,0,0.1902,0.1904,0.2018,0.2019,0.2021,0.2121,0.2123,0.2124,0.2267,0.227,0.2273,0.2276,0.2577,0.2584,0.2591,0,0,0,0,0,0,0,0,0,0,0,0,0,0.1973,0.1904,0.2018,0.2105,0.2114,0.2121,0.2123,0.2124,0.2266,0.227,0.2274,0.2277,0.2575,0.2584,0.2592,0.257,0,0,0.2619,0.2622,0,0,0,0,0,0,0,0,0.1968,0.1977,0.2091,0.2099,0.2109,0.2186,0.2193,0.2284,0.2265,0.2207,0.2275,0.2279,0.2464,0.2482,0.2489,0.2584,0.2597,0.2619,0.2625,0.2628,0.2631,0,0,0,0,0,0,0,0.1963,0.1973,0.2058,0.2092,0.2103,0.2124,0.2139,0.221,0.2316,0.2213,0.2223,0.2235,0.2471,0.248,0.2498,0.2602,0.2619,0.2627,0.2632,0.2635,0.2852,0.2852,0,0,0,0,0,0,0.1951,0.1968,0.2055,0.2061,0.2048,0.2123,0.214,0.2157,0.2312,0.2337,0.2232,0.2241,0.2463,0.2488,0.251,0.2654,0.2628,0.2636,0.2641,0.2851,0.2852,0.2853,0,0,0,0,0,0,0.1948,0.1957,0.2051,0.2018,0.2031,0.2122,0.214,0.2157,0.2216,0.2324,0.2355,0.2279,0.2467,0.2497,0.2615,0.2662,0.264,0.2648,0.2851,0.2851,0.2852,0.2842,0,0,0,0,0,0,0.1944,0.1956,0.1979,0.2017,0.2033,0.2099,0.2137,0.2156,0.2214,0.2229,0.2373,0.2403,0.2473,0.2601,0.2623,0.2674,0.2655,0.285,0.2851,0.2852,0.2841,0.2842,0.2843,0,0,0,0,0,0.1939,0.196,0.1979,0.1991,0.2057,0.21,0.2111,0.2186,0.2213,0.225,0.234,0.2401,0.2624,0.2609,0.2635,0.2688,0.2849,0.2851,0.2852,0.2841,0.2842,0.2843,0,0,0,0,0,0,0.1936,0.1977,0.2,0.2037,0.2082,0.2126,0.2163,0.2195,0.2285,0.2316,0.2409,0.2445,0.2571,0.2613,0.2594,0.2749,0.2746,0.2752,0.2728,0.273,0.2731,0.2738,0.2662,0,0,0,0,0,0.1936,0.1956,0.2004,0.2034,0.206,0.2108,0.2139,0.2187,0.2257,0.2302,0.2391,0.2487,0.258,0.2645,0.2732,0.2808,0.2817,0.2856,0.2857,0.2857,0.2878,0.2922,0.2929,0.2857,0.2857,0.2857,0,0,0.1935,0.1965,0.1976,0.2033,0.2071,0.2104,0.2139,0.2198,0.2239,0.232,0.242,0.2504,0.2601,0.2703,0.2761,0.2756,0.2869,0.2859,0.2859,0.288,0.2924,0.2931,0.2937,0.2857,0.2857,0.2857,0,0,0.194,0.1979,0.2,0.2031,0.2096,0.2126,0.2148,0.2213,0.2272,0.2349,0.243,0.2538,0.2654,0.2746,0.28,0.2849,0.2875,0.2874,0.289,0.2932,0.2938,0.2944,0.2903,0.2906,0.287,0.287,0.287,0,0.1948,0.1972,0.2015,0.2044,0.2068,0.2135,0.2163,0.2218,0.2316,0.2371,0.2391,0.2586,0.2675,0.2809,0.2834,0.2859,0.2851,0.2881,0.2933,0.294,0.2946,0.2903,0.2907,0.287,0.287,0.287,0.287,0,0.1955,0.1986,0.2002,0.2052,0.2089,0.2124,0.2194,0.2261,0.2321,0.238,0.2527,0.2632,0.2751,0.2792,0.2836,0.294,0.2905,0.293,0.293,0.2953,0.2905,0.2909,0.2869,0.2869,0.287,0.287,0,0,0.1954,0.1996,0.2004,0.2022,0.2093,0.2121,0.2201,0.2293,0.2358,0.2464,0.2549,0.2712,0.2778,0.2843,0.2918,0.2965,0.2988,0.2966,0.2969,0.2922,0.3016,0.2772,0.2751,0.3021,0.3023,0.3025,0.2941,0,0.1956,0.1974,0.2006,0.2041,0.2064,0.2136,0.2195,0.2294,0.2386,0.2488,0.2623,0.2735,0.2792,0.2856,0.2919,0.3005,0.3007,0.3004,0.3006,0.3005,0.2784,0.2752,0.2608,0.2503,0.2945,0.2945,0.2946,0,0.1966,0.1973,0.1991,0.2035,0.2054,0.2088,0.2197,0.2258,0.242,0.2495,0.2635,0.2738,0.2881,0.2889,0.3018,0.3013,0.3008,0.3035,0.3032,0.2821,0.2768,0.2566,0.2493,0.2952,0.2951,0.2951,0.295,0,0.1945,0.1972,0.1976,0.1987,0.2051,0.2091,0.2133,0.2274,0.234,0.2504,0.2572,0.2749,0.2841,0.2908,0.2976,0.3005,0.3047,0.3089,0.2842,0.2822,0.2709,0.2674,0.3115,0.3115,0.3115,0.3115,0.3116,0,0.1946,0.196,0.1963,0.1973,0.1994,0.2053,0.2119,0.2202,0.2325,0.2412,0.2571,0.2668,0.2855,0.2916,0.2954,0.2883,0.302,0.2826,0.2792,0.2688,0.2654,0.3075,0.3071,0.3112,0.3113,0.3113,0.3114,0,0.1967,0.1958,0.1967,0.1989,0.1993,0.2015,0.2074,0.212,0.2247,0.2361,0.2412,0.2619,0.2683,0.2768,0.2861,0.2816,0.2794,0.2711,0.2522,0.2464,0.2542,0.2539,0.2449,0.2439,0.2432,0.2425,0.242,0,0.1992,0.199,0.1963,0.1931,0.1945,0.1966,0.1975,0.2077,0.2127,0.2329,0.2372,0.2483,0.2481,0.2463,0.2454,0.2367,0.2547,0.2167,0.2195,0.2501,0.2478,0.2488,0.2495,0.2033,0.2025,0.2019,0.2013,0,0.2022,0.1999,0.1969,0.1898,0.1877,0.1869,0.1894,0.1927,0.2063,0.2153,0.2284,0.2281,0.2231,0.2102,0.193,0.1892,0.2176,0.2016,0.2435,0.219,0.2093,0.2076,0.2101,0.1954,0.196,0.1964,0.1967,0.197,0.2018,0.1977,0.1892,0.1828,0.1795,0.1767,0.1784,0.1816,0.1875,0.1978,0.2074,0.2026,0.1893,0.1575,0.1516,0.1561,0.1654,0.1658,0.1688,0.1722,0.1655,0.1547,0.1288,0.129,0.1292,0.1293,0.1295,0,0.1968,0.189,0.1816,0.1712,0.1659,0.17,0.1717,0.1752,0.1807,0.1801,0.1837,0.1564,0.1318,0.1308,0.1245,0.1135,0.1241,0.1152,0.1341,0.1392,0.144,0.1371,0.0923,0.0923,0.0923,0.0923,0,0,0.1916,0.1792,0.1729,0.1587,0.1567,0.1555,0.1596,0.1644,0.1665,0.1564,0.1493,0.1351,0.1262,0.1117,0.1007,0.1025,0.1251,0.0997,0.1277,0.1554,0.1605,0.1673,0.1612,0,0,0,0,0]},{"header":{"parameterUnit":"m.s-1","parameterCategory":2,"la1":30.2991,"la2":30.254,"lo1":-89.0895,"lo2":-89.0444,"dy":0.0017,"dx":0.0017,"nx":28,"ny":28,"refTime":"2023-08-09T03:00:00:Z","depth":"2","parameterNumber":3,"parameterNumberName":"V-component_of_CURRENTS"},"data":[0,0,0,0,0,0,0,0,0,0,0,0,0,0,0,0,0,0,0,0,0,0,0,0,0,0,0,0,0,0,0,0,0,0,0,0,0,0,0,0,0,0,0,0,0,0,0,0,0,0,0,0,0,0,0,0,0,0,0.0298,0.0298,0,0.0304,0.0304,0.0305,0.0251,0.0249,0.0248,0.0246,0.0156,0.0155,0.0154,0,0,0,0,0,0,0,0,0,0,0,0,0,0.0224,0.0226,0.0298,0.0298,0.0298,0.0304,0.0304,0.0305,0.0251,0.0249,0.0247,0.0245,0.0156,0.0155,0.0154,0,0,0,0,0,0,0,0,0,0,0,0,0,0.0248,0.0227,0.0298,0.027,0.0268,0.0304,0.0304,0.0305,0.0252,0.0249,0.0247,0.0244,0.0156,0.0155,0.0154,0.0198,0,0,0.015,0.0149,0,0,0,0,0,0,0,0,0.0247,0.0251,0.0275,0.0272,0.0269,0.0272,0.0245,0.0263,0.0253,0.0261,0.0246,0.0243,0.0186,0.0182,0.0194,0.0193,0.019,0.015,0.0149,0.0149,0.0148,0,0,0,0,0,0,0,0.0245,0.0251,0.0303,0.0275,0.0271,0.0251,0.0252,0.0249,0.0238,0.026,0.0255,0.0253,0.0184,0.0195,0.0191,0.0188,0.015,0.0149,0.0148,0.0148,0.0131,0.0131,0,0,0,0,0,0,0.0244,0.025,0.0303,0.0303,0.0249,0.0255,0.0256,0.0276,0.024,0.0232,0.0255,0.025,0.0199,0.0192,0.0187,0.0218,0.0149,0.0147,0.0147,0.013,0.0131,0.0131,0,0,0,0,0,0,0.0243,0.025,0.0303,0.0272,0.0277,0.0258,0.0281,0.0277,0.0283,0.0237,0.0227,0.0263,0.0196,0.0189,0.0191,0.0214,0.0147,0.0146,0.013,0.013,0.0131,0.0291,0,0,0,0,0,0,0.0241,0.025,0.0268,0.0274,0.0279,0.0341,0.0283,0.0279,0.0284,0.0278,0.0241,0.023,0.0194,0.0193,0.019,0.0211,0.0145,0.013,0.013,0.0131,0.0285,0.0296,0.0306,0,0,0,0,0,0.0239,0.0278,0.027,0.0276,0.0305,0.0343,0.0346,0.0323,0.0287,0.0314,0.0278,0.0231,0.0191,0.0194,0.019,0.0211,0.0129,0.013,0.0131,0.028,0.0294,0.0306,0,0,0,0,0,0,0.026,0.0276,0.0267,0.031,0.033,0.0333,0.0353,0.0335,0.0332,0.0319,0.0262,0.0251,0.0254,0.0209,0.0213,0.0199,0.0142,0.0142,0.0257,0.027,0.028,0.0289,0.0144,0,0,0,0,0,0.0274,0.0306,0.0318,0.0356,0.0368,0.0363,0.0373,0.0364,0.0358,0.0354,0.0328,0.0284,0.0258,0.0246,0.0221,0.0237,0.0148,0.0233,0.0244,0.0254,0.0253,0.0133,0.0133,0.0133,0.0133,0.0133,0,0,0.0293,0.0306,0.0323,0.0362,0.0373,0.0417,0.0364,0.0397,0.0423,0.0346,0.0375,0.0333,0.0269,0.0281,0.0275,0.0246,0.0211,0.0255,0.0264,0.0257,0.0134,0.0134,0.0134,0.0133,0.0133,0.0133,0,0,0.035,0.0362,0.0406,0.0433,0.0458,0.0463,0.0475,0.049,0.0486,0.0517,0.045,0.0425,0.0406,0.0363,0.0334,0.0386,0.0274,0.0365,0.0433,0.0318,0.0317,0.0315,0.0224,0.0213,0.0369,0.0369,0.0369,0,0.0368,0.0426,0.0428,0.048,0.0504,0.0488,0.0543,0.0554,0.0566,0.0564,0.054,0.0484,0.0442,0.0421,0.0437,0.0414,0.0328,0.0401,0.0333,0.0329,0.0325,0.0231,0.0216,0.0377,0.0376,0.0375,0.0374,0,0.0453,0.0504,0.0537,0.0594,0.0628,0.0676,0.0688,0.0713,0.0699,0.0694,0.0681,0.0626,0.058,0.0563,0.0524,0.0474,0.0418,0.0367,0.0309,0.0335,0.0234,0.0216,0.0388,0.0385,0.0383,0.0381,0,0,0.0466,0.0575,0.0583,0.0628,0.0688,0.0723,0.0778,0.0811,0.083,0.0822,0.0828,0.0783,0.0733,0.0694,0.0628,0.0538,0.0451,0.045,0.044,0.0375,0.02,0.0285,0.0272,0.0378,0.0375,0.0373,0.0152,0,0.0525,0.0638,0.0678,0.0782,0.0836,0.0854,0.0906,0.093,0.0934,0.0943,0.0865,0.0851,0.0786,0.0763,0.0669,0.0508,0.0406,0.0516,0.017,0.0161,0.0245,0.0255,0.025,0.0063,0.0134,0.013,0.0128,0,0.0572,0.0645,0.0757,0.0864,0.0888,0.0944,0.1002,0.1052,0.1057,0.1056,0.1022,0.0965,0.0873,0.0796,0.0529,0.0597,0.0411,0.0273,0.026,0.0268,0.0212,0.0041,0.0026,0.0096,0.0099,0.0101,0.0103,0,0.0549,0.0689,0.0775,0.0815,0.0937,0.0976,0.1029,0.107,0.111,0.1115,0.113,0.1017,0.0957,0.0721,0.0493,0.0482,0.0179,0.0119,0.0012,0.0015,-0.0091,-0.009,-0.011,-0.011,-0.0109,-0.0109,-0.0108,0,0.0574,0.0641,0.0769,0.0818,0.0907,0.0985,0.1062,0.1105,0.1159,0.1204,0.1173,0.1167,0.0926,0.0756,0.0507,0.0241,0.0179,0.0027,-0.0035,-0.003,-0.0021,-0.008,-0.0073,-0.0117,-0.0115,-0.0113,-0.0112,0,0.053,0.0619,0.072,0.0858,0.0899,0.0953,0.1085,0.1139,0.1202,0.1256,0.1262,0.124,0.1035,0.0793,0.0424,0.0282,-0.0,-0.0098,-0.0038,-0.0085,-0.0102,-0.0086,-0.025,-0.0249,-0.0248,-0.0247,-0.0247,0,0.0519,0.0571,0.0724,0.0775,0.0836,0.0935,0.1005,0.1125,0.1193,0.1293,0.131,0.1204,0.1089,0.0675,0.0403,0.0023,-0.0034,-0.0161,-0.0165,-0.0072,-0.0118,-0.0102,-0.0087,-0.0269,-0.0269,-0.0269,-0.0268,0,0.0492,0.0542,0.0623,0.0732,0.0816,0.0926,0.104,0.1113,0.1253,0.1313,0.1366,0.1289,0.0982,0.0642,0.0253,0.0033,-0.0078,-0.0159,-0.0147,-0.0174,-0.0092,-0.0134,-0.012,-0.0265,-0.0265,-0.0266,-0.0266,-0.0266,0.0449,0.0487,0.0591,0.0684,0.0787,0.091,0.1003,0.1139,0.1259,0.1345,0.1309,0.1188,0.0836,0.0312,0.0068,-0.006,-0.0096,-0.0213,-0.0216,-0.0218,-0.0121,-0.0036,-0.0182,-0.0182,-0.0182,-0.0182,-0.0182,0,0.0394,0.0453,0.0541,0.0671,0.0767,0.0839,0.1026,0.113,0.1279,0.1281,0.1265,0.0879,0.0519,0.0238,0.0025,-0.0158,-0.0171,-0.0184,-0.0222,-0.0225,-0.0228,-0.0131,-0.0196,-0.0196,-0.0196,-0.0195,0,0,0.0372,0.0421,0.0481,0.0618,0.0711,0.0862,0.0972,0.1125,0.1205,0.1195,0.1104,0.0821,0.0489,0.0264,0.0011,-0.0051,-0.0062,-0.0038,-0.0018,-0.0037,-0.0036,-0.0249,-0.0103,0,0,0,0,0]}],[{"header":{"parameterUnit":"m.s-1","parameterCategory":2,"la1":30.2991,"la2":30.254,"lo1":-89.0895,"lo2":-89.0444,"dy":0.0017,"dx":0.0017,"nx":28,"ny":28,"refTime":"2023-08-09T03:00:00:Z","depth":"4","parameterNumber":2,"parameterNumberName":"U-component_of_CURRENTS"},"data":[0,0,0,0,0,0,0,0,0,0,0,0,0,0,0,0,0,0,0,0,0,0,0,0,0,0,0,0,0,0,0,0,0,0,0,0,0,0,0,0,0,0,0,0,0,0,0,0,0,0,0,0,0,0,0,0,0,0,0.0214,0.0215,0,0.0271,0.0271,0.0271,0.0386,0.0389,0.0392,0.0395,0.0486,0.0486,0.0486,0,0,0,0,0,0,0,0,0,0,0,0,0,0.0132,0.0133,0.0214,0.0216,0.0217,0.0271,0.0271,0.0271,0.0386,0.0389,0.0393,0.0396,0.0486,0.0486,0.0486,0,0,0,0,0,0,0,0,0,0,0,0,0,0.0171,0.0133,0.0214,0.0285,0.0292,0.0271,0.0271,0.0271,0.0385,0.0389,0.0394,0.0397,0.0486,0.0486,0.0486,0.04,0,0,0.0485,0.0485,0,0,0,0,0,0,0,0,0.0169,0.0173,0.0273,0.028,0.0288,0.0331,0.0276,0.0318,0.0384,0.0344,0.0395,0.04,0.0438,0.0442,0.0435,0.0404,0.0408,0.0485,0.0485,0.0485,0.0485,0,0,0,0,0,0,0,0.0166,0.0171,0.0231,0.0274,0.0283,0.0289,0.0299,0.0284,0.0363,0.0347,0.0357,0.0371,0.0442,0.0434,0.0438,0.0409,0.0485,0.0485,0.0485,0.0484,0.0443,0.0442,0,0,0,0,0,0,0.017,0.0168,0.0229,0.0233,0.0244,0.0288,0.0299,0.0308,0.0362,0.0376,0.0368,0.0377,0.0433,0.0438,0.0442,0.0491,0.0485,0.0484,0.0484,0.0444,0.0443,0.0442,0,0,0,0,0,0,0.0167,0.0174,0.0227,0.0207,0.0215,0.0286,0.0295,0.0307,0.0403,0.0378,0.0393,0.0464,0.0436,0.0442,0.0496,0.0491,0.0484,0.0484,0.0445,0.0444,0.0443,0.0495,0,0,0,0,0,0,0.0164,0.0172,0.0211,0.0207,0.0217,0.0274,0.0292,0.0305,0.0401,0.0416,0.0462,0.047,0.044,0.0496,0.0495,0.049,0.0484,0.0446,0.0445,0.0443,0.0495,0.0496,0.0497,0,0,0,0,0,0.0161,0.0185,0.0211,0.0221,0.0256,0.0276,0.0282,0.0341,0.0403,0.0444,0.0475,0.0474,0.0483,0.0497,0.0495,0.049,0.0447,0.0445,0.0443,0.0494,0.0496,0.0497,0,0,0,0,0,0,0.0184,0.0199,0.0229,0.0264,0.03,0.03,0.0353,0.0394,0.0449,0.0494,0.0483,0.0489,0.0512,0.05,0.0515,0.0466,0.0455,0.0453,0.0494,0.0495,0.0496,0.0461,0.0484,0,0,0,0,0,0.02,0.0226,0.0244,0.0286,0.0312,0.0353,0.0386,0.0427,0.0459,0.0495,0.0533,0.0534,0.0477,0.0501,0.0465,0.0472,0.0409,0.0457,0.0458,0.046,0.0426,0.0307,0.0294,0.0435,0.0435,0.0435,0,0,0.0222,0.0239,0.0258,0.0295,0.0334,0.035,0.0386,0.0463,0.047,0.0489,0.0562,0.0552,0.0477,0.0458,0.0468,0.0473,0.0398,0.0457,0.0459,0.0423,0.0303,0.0289,0.0277,0.0434,0.0434,0.0434,0,0,0.0254,0.0303,0.0329,0.0357,0.0426,0.0423,0.047,0.0529,0.0562,0.0611,0.0582,0.0575,0.0591,0.0488,0.0435,0.042,0.0396,0.0445,0.0442,0.0329,0.0316,0.0303,0.0261,0.0244,0.0461,0.0461,0.0461,0,0.0296,0.0321,0.0346,0.0377,0.0404,0.0466,0.0495,0.0499,0.0575,0.0564,0.0658,0.0579,0.056,0.0407,0.0415,0.0416,0.0394,0.0452,0.033,0.0316,0.0302,0.026,0.024,0.0464,0.0463,0.0463,0.0463,0,0.0321,0.0368,0.0398,0.0434,0.0453,0.051,0.0503,0.0546,0.0618,0.0605,0.0573,0.0543,0.0493,0.0475,0.0455,0.0328,0.036,0.0336,0.033,0.0291,0.025,0.0229,0.0467,0.0466,0.0465,0.0465,0,0,0.0358,0.0405,0.0429,0.0453,0.0502,0.0512,0.0502,0.0475,0.0454,0.0525,0.0476,0.04,0.0436,0.0373,0.0343,0.0258,0.0178,0.0297,0.029,0.0261,0.0001,0.0113,0.0101,0.0164,0.016,0.0156,0.0033,0,0.0397,0.0451,0.0447,0.0495,0.0526,0.0529,0.0489,0.0463,0.0468,0.0438,0.0364,0.0336,0.0373,0.0392,0.0301,0.0184,0.0118,0.0217,0.0035,0.0029,0.0137,0.0076,0.0141,0.0017,0.0012,0.0009,0.0006,0,0.0429,0.0459,0.0519,0.0512,0.0523,0.0549,0.05,0.0476,0.0376,0.038,0.0334,0.031,0.019,0.0255,0.0042,0.013,0.0081,0.0003,-0.0005,0.0051,0.0098,0.0047,-0.0033,-0.003,-0.0027,-0.0025,-0.0022,0,0.0447,0.0501,0.0552,0.057,0.0564,0.0581,0.0582,0.0499,0.0434,0.0383,0.0346,0.0225,0.0186,0.007,-0.002,0.0026,-0.0254,-0.0228,-0.0191,-0.0181,-0.0265,-0.0252,-0.0394,-0.0393,-0.0393,-0.0393,-0.0392,0,0.0469,0.0512,0.0596,0.0628,0.0651,0.0646,0.0625,0.0595,0.0497,0.0367,0.0367,0.0242,0.0146,-0.0005,-0.0073,-0.0187,-0.029,-0.022,-0.023,-0.0229,-0.0211,-0.0277,-0.0261,-0.0397,-0.0396,-0.0395,-0.0395,0,0.0466,0.0531,0.0595,0.0654,0.0676,0.0717,0.0683,0.0604,0.0568,0.0399,0.0392,0.0239,0.01,-0.0018,-0.023,-0.0244,-0.038,-0.0393,-0.0356,-0.0358,-0.0206,-0.0187,-0.0361,-0.0359,-0.0357,-0.0355,-0.0354,0,0.0465,0.0514,0.0635,0.0673,0.073,0.0771,0.0729,0.0677,0.0541,0.0352,0.0212,0.0115,0.0015,-0.0179,-0.0277,-0.0376,-0.0372,-0.0409,-0.0326,-0.0223,-0.0216,-0.02,-0.0184,-0.035,-0.035,-0.0349,-0.0349,0,0.0456,0.0542,0.0581,0.0667,0.0706,0.0661,0.0609,0.0522,0.0362,0.0303,0.0105,0.006,-0.0096,-0.0174,-0.0215,-0.0315,-0.0374,-0.0388,-0.0391,-0.0314,-0.0213,-0.0204,-0.019,-0.0342,-0.0343,-0.0344,-0.0344,0,0.0462,0.0495,0.0574,0.0598,0.0643,0.0558,0.0546,0.0391,0.0288,0.0085,0.0006,-0.0078,-0.0141,-0.0152,-0.0255,-0.0258,-0.0238,-0.0225,-0.0236,-0.0245,-0.0145,0.0005,-0.0097,0,0,0,0,0,0.0446,0.043,0.047,0.0492,0.0517,0.0507,0.0405,0.0346,0.0193,0.0069,0.0056,-0.0065,-0.0098,-0.0148,-0.0126,-0.0223,-0.0259,-0.0198,-0.0254,-0.0304,-0.0312,-0.0201,0,0,0,0,0,0,0.0429,0.0476,0.0434,0.037,0.0353,0.0316,0.0267,0.0171,0.0091,0.0001,-0.001,-0.004,-0.0077,-0.0099,-0.0121,-0.0133,-0.0157,-0.0231,-0.0229,-0.0299,-0.0306,-0.0313,-0.0202,0,0,0,0,0]},{"header":{"parameterUnit":"m.s-1","parameterCategory":2,"la1":30.2991,"la2":30.254,"lo1":-89.0895,"lo2":-89.0444,"dy":0.0017,"dx":0.0017,"nx":28,"ny":28,"refTime":"2023-08-09T03:00:00:Z","depth":"4","parameterNumber":3,"parameterNumberName":"V-component_of_CURRENTS"},"data":[0,0,0,0,0,0,0,0,0,0,0,0,0,0,0,0,0,0,0,0,0,0,0,0,0,0,0,0,0,0,0,0,0,0,0,0,0,0,0,0,0,0,0,0,0,0,0,0,0,0,0,0,0,0,0,0,0,0,-0.0602,-0.0604,0,-0.0706,-0.0707,-0.0708,-0.0797,-0.0799,-0.08,-0.0802,-0.1065,-0.1071,-0.1076,0,0,0,0,0,0,0,0,0,0,0,0,0,-0.0408,-0.0411,-0.0602,-0.0604,-0.0606,-0.0706,-0.0707,-0.0708,-0.0797,-0.0799,-0.0801,-0.0802,-0.1063,-0.107,-0.1077,0,0,0,0,0,0,0,0,0,0,0,0,0,-0.0494,-0.0412,-0.0602,-0.0667,-0.0674,-0.0706,-0.0707,-0.0708,-0.0796,-0.0799,-0.0801,-0.0803,-0.1061,-0.1069,-0.1077,-0.1081,0,0,-0.1103,-0.1106,0,0,0,0,0,0,0,0,-0.0489,-0.05,-0.0656,-0.0663,-0.0671,-0.0747,-0.0736,-0.0843,-0.0796,-0.0743,-0.0802,-0.0805,-0.0976,-0.0991,-0.0994,-0.1093,-0.1104,-0.1103,-0.1109,-0.1112,-0.1114,0,0,0,0,0,0,0,-0.0483,-0.0496,-0.0637,-0.0658,-0.0667,-0.0667,-0.0682,-0.0755,-0.0843,-0.0748,-0.0756,-0.0778,-0.0981,-0.0986,-0.1002,-0.1108,-0.1103,-0.1111,-0.1116,-0.1119,-0.132,-0.132,0,0,0,0,0,0,-0.0485,-0.0491,-0.0634,-0.0641,-0.0592,-0.0669,-0.0686,-0.0715,-0.0839,-0.0861,-0.0775,-0.0781,-0.097,-0.0992,-0.1012,-0.1117,-0.1112,-0.112,-0.1125,-0.1319,-0.132,-0.132,0,0,0,0,0,0,-0.0481,-0.0497,-0.0629,-0.0572,-0.059,-0.0672,-0.0703,-0.0716,-0.0787,-0.0859,-0.0883,-0.0841,-0.0973,-0.1,-0.1129,-0.1126,-0.1124,-0.1131,-0.1319,-0.132,-0.132,-0.127,0,0,0,0,0,0,-0.0475,-0.0495,-0.0529,-0.0573,-0.0594,-0.0691,-0.0702,-0.0716,-0.0795,-0.0806,-0.0923,-0.0945,-0.0977,-0.1116,-0.1137,-0.1137,-0.1138,-0.1318,-0.1319,-0.132,-0.1271,-0.1269,-0.1267,0,0,0,0,0,-0.0467,-0.0503,-0.053,-0.0548,-0.0634,-0.0693,-0.0704,-0.0763,-0.0797,-0.0834,-0.0916,-0.0945,-0.1133,-0.1125,-0.1149,-0.1151,-0.1318,-0.1319,-0.132,-0.1272,-0.1269,-0.1267,0,0,0,0,0,0,-0.0448,-0.0517,-0.0547,-0.0608,-0.0667,-0.0712,-0.0753,-0.0796,-0.0882,-0.091,-0.0978,-0.1006,-0.1104,-0.1146,-0.1134,-0.1207,-0.122,-0.1225,-0.1175,-0.1173,-0.1171,-0.1128,-0.1144,0,0,0,0,0,-0.0455,-0.0504,-0.0566,-0.0624,-0.0651,-0.0712,-0.0751,-0.0794,-0.0868,-0.091,-0.0985,-0.1057,-0.111,-0.1164,-0.1221,-0.1289,-0.1264,-0.1296,-0.1294,-0.1292,-0.1272,-0.1243,-0.1235,-0.1323,-0.1323,-0.1323,0,0,-0.047,-0.0514,-0.0546,-0.0624,-0.0669,-0.0704,-0.0742,-0.0816,-0.0846,-0.0927,-0.1011,-0.1071,-0.113,-0.1186,-0.1231,-0.1234,-0.1249,-0.1293,-0.129,-0.1272,-0.1243,-0.1234,-0.1226,-0.1323,-0.1323,-0.1323,0,0,-0.0491,-0.0557,-0.0589,-0.0635,-0.0714,-0.0741,-0.0778,-0.0851,-0.0889,-0.0973,-0.1016,-0.108,-0.119,-0.1201,-0.1224,-0.1251,-0.1241,-0.1277,-0.1234,-0.1206,-0.1197,-0.119,-0.1117,-0.1104,-0.1272,-0.1272,-0.1272,0,-0.0499,-0.0554,-0.0611,-0.0645,-0.0686,-0.0763,-0.0798,-0.0833,-0.094,-0.0961,-0.1006,-0.111,-0.1174,-0.1198,-0.1195,-0.1242,-0.1214,-0.1238,-0.1199,-0.1191,-0.1184,-0.1112,-0.1098,-0.1269,-0.127,-0.127,-0.127,0,-0.0531,-0.0582,-0.061,-0.0669,-0.0716,-0.0772,-0.082,-0.0869,-0.0926,-0.0952,-0.1018,-0.1084,-0.1139,-0.1157,-0.1189,-0.1168,-0.1158,-0.1198,-0.1196,-0.1171,-0.1098,-0.1083,-0.1266,-0.1267,-0.1268,-0.1268,0,0,-0.052,-0.061,-0.0622,-0.0653,-0.0739,-0.0777,-0.0813,-0.0856,-0.0876,-0.095,-0.0968,-0.103,-0.1065,-0.109,-0.1132,-0.1104,-0.1025,-0.1127,-0.1126,-0.1035,-0.0925,-0.0934,-0.0918,-0.1063,-0.1061,-0.1059,-0.0882,0,-0.0528,-0.0584,-0.0628,-0.0689,-0.0723,-0.0784,-0.0803,-0.0849,-0.0893,-0.0926,-0.0958,-0.1003,-0.1038,-0.107,-0.1046,-0.1058,-0.099,-0.1066,-0.0979,-0.0975,-0.0971,-0.0904,-0.1053,-0.0871,-0.0868,-0.0865,-0.0864,0,-0.0536,-0.0574,-0.0623,-0.0691,-0.071,-0.0737,-0.0786,-0.0818,-0.085,-0.0882,-0.0913,-0.0961,-0.0955,-0.0988,-0.0927,-0.098,-0.0929,-0.0909,-0.0903,-0.0917,-0.0958,-0.0911,-0.0837,-0.0839,-0.0841,-0.0843,-0.0845,0,-0.0498,-0.0572,-0.061,-0.0641,-0.0713,-0.0724,-0.0756,-0.0794,-0.0813,-0.0848,-0.0864,-0.0887,-0.09,-0.086,-0.0826,-0.0882,-0.0721,-0.0803,-0.0733,-0.0732,-0.0799,-0.081,-0.0694,-0.0694,-0.0694,-0.0695,-0.0695,0,-0.0486,-0.0528,-0.0588,-0.0613,-0.0633,-0.0692,-0.0708,-0.0737,-0.0769,-0.0766,-0.0834,-0.0821,-0.0869,-0.0809,-0.0775,-0.0691,-0.0672,-0.0688,-0.0685,-0.078,-0.0791,-0.0786,-0.0799,-0.0688,-0.069,-0.0691,-0.0692,0,-0.0451,-0.0503,-0.0552,-0.0611,-0.0616,-0.0632,-0.0673,-0.069,-0.0712,-0.0706,-0.0715,-0.0756,-0.0715,-0.0701,-0.0627,-0.0622,-0.0543,-0.0492,-0.0526,-0.0534,-0.0584,-0.0597,-0.0444,-0.0442,-0.0441,-0.044,-0.044,0,-0.0447,-0.0465,-0.0529,-0.0544,-0.0567,-0.0588,-0.0602,-0.0648,-0.0644,-0.064,-0.0617,-0.0611,-0.0627,-0.0514,-0.0515,-0.0436,-0.0437,-0.0372,-0.0545,-0.0544,-0.0557,-0.0571,-0.0585,-0.0438,-0.0438,-0.0438,-0.0437,0,-0.0434,-0.0462,-0.0495,-0.0501,-0.0522,-0.0565,-0.0565,-0.0541,-0.0566,-0.0579,-0.0544,-0.0551,-0.0501,-0.0509,-0.0431,-0.0374,-0.0433,-0.0363,-0.0368,-0.0531,-0.0536,-0.0553,-0.0568,-0.0434,-0.0434,-0.0435,-0.0435,0,-0.0424,-0.0445,-0.0472,-0.046,-0.0504,-0.0532,-0.0541,-0.0529,-0.0537,-0.0509,-0.0468,-0.047,-0.0476,-0.0463,-0.0368,-0.0354,-0.041,-0.0426,-0.0429,-0.0433,-0.0523,-0.0535,-0.0393,0,0,0,0,0,-0.039,-0.0404,-0.0425,-0.0445,-0.0486,-0.0523,-0.0517,-0.0522,-0.0481,-0.0462,-0.0477,-0.0435,-0.0423,-0.041,-0.0405,-0.0373,-0.0395,-0.0364,-0.0413,-0.0414,-0.0418,-0.0532,0,0,0,0,0,0,-0.039,-0.0409,-0.0415,-0.042,-0.0443,-0.0512,-0.0534,-0.0522,-0.0496,-0.0453,-0.045,-0.0443,-0.0429,-0.0443,-0.0414,-0.0406,-0.0437,-0.0355,-0.0355,-0.0412,-0.0415,-0.0419,-0.0537,0,0,0,0,0]}]]